Lapse_Rate
5.2 5.2 4.9 4.8 4.6 4.4 4.3 5.1 4.2 5.4 5.4 5.5 5.2 5.0 5.0 5.4 5.6 5.9 6.3 6.5 6.4 6.7 6.6 6.6 6.8 6.9 6.8 6.9 6.9 6.9 6.8 6.7 6.6 6.6 6.6 6.6 6.7 6.8 6.7 6.8 6.8 6.6 6.5 6.5
4.9 5.1 4.8 4.6 4.7 4.3 4.2 4.2 4.2 4.6 6.1 5.0 5.2 4.9 5.1 5.2 5.8 6.0 5.9 6.1 6.6 6.7 6.7 7.0 7.1 7.1 6.9 6.9 6.9 6.8 6.8 6.7 6.6 6.6 6.6 6.7 6.7 6.6 6.6 6.7 6.6 6.5 6.4 6.4
4.2 4.4 4.3 4.7 5.5 5.5 5.4 5.2 5.1 4.7 6.1 5.3 5.6 5.7 5.8 6.0 5.9 6.3 6.5 6.6 6.7 6.8 7.0 7.2 7.2 7.1 7.0 7.0 6.9 6.9 6.8 6.7 6.6 6.7 6.8 6.8 6.7 6.6 6.7 6.7 6.6 6.5 6.4 6.4
3.8 4.2 4.0 5.2 5.6 5.7 5.5 5.6 5.6 5.8 5.7 5.5 5.8 5.9 6.0 6.2 6.4 6.4 6.5 6.6 6.8 7.0 7.1 7.3 7.2 7.1 7.1 7.0 7.0 7.0 6.8 6.8 6.8 6.8 6.8 6.7 6.6 6.6 6.7 6.7 6.6 6.6 6.5 6.5
3.6 3.8 4.9 5.7 5.9 5.8 5.7 5.7 5.6 5.5 5.5 5.4 5.4 5.5 5.8 6.2 6.3 6.6 6.4 6.6 6.7 7.0 7.3 7.2 7.2 7.1 7.1 7.0 7.0 6.9 6.8 6.8 6.8 6.8 6.7 6.6 6.6 6.6 6.6 6.6 6.6 6.5 6.4 6.4
3.8 3.6 3.9 5.4 5.4 5.5 5.5 5.7 5.5 5.5 5.4 5.4 5.4 5.5 5.4 5.7 5.7 6.4 6.7 6.7 6.9 7.1 7.1 7.0 7.0 7.2 7.1 7.0 7.0 6.8 6.6 6.8 6.8 6.7 6.6 6.6 6.6 6.6 6.5 6.5 6.4 6.4 6.4 6.3
3.1 3.3 5.2 5.7 5.4 5.3 5.3 5.3 5.2 5.2 5.2 5.0 5.1 5.2 5.5 5.5 5.8 5.9 6.3 6.7 6.8 6.9 7.0 6.9 6.9 7.0 7.1 7.0 6.9 6.7 6.9 6.9 6.9 6.8 6.6 6.6 6.7 6.5 6.3 6.2 6.3 6.1 6.0 5.9
3.5 3.6 4.8 6.0 5.5 5.3 5.2 5.0 4.9 4.7 4.9 5.0 5.0 5.3 5.2 5.4 5.6 5.8 5.9 6.0 6.2 6.5 6.6 6.6 6.8 6.9 7.1 7.1 6.8 6.9 6.8 6.8 6.8 6.7 6.7 6.6 6.4 6.3 6.2 6.1 6.0 5.9 5.9 5.8
5.6 6.1 6.3 5.8 5.3 4.8 4.6 4.6 4.8 4.8 5.0 4.9 5.0 5.4 5.7 5.9 6.0 5.9 5.9 5.9 6.0 6.2 6.4 6.4 6.4 6.6 6.8 6.7 6.7 6.8 6.7 6.7 6.5 6.3 6.4 6.4 6.3 6.2 6.2 6.1 6.1 5.9 5.8 5.7
5.3 6.0 5.9 5.6 5.0 4.8 4.8 4.9 4.6 4.7 5.2 5.1 5.2 5.4 5.6 5.6 5.7 5.8 5.9 6.0 6.2 6.3 6.4 6.5 6.3 6.4 6.5 6.6 6.6 6.5 6.6 6.7 6.7 6.5 6.2 6.1 6.0 6.0 6.0 6.0 5.8 5.8 5.6 5.5
4.9 5.4 4.9 4.8 4.9 5.1 5.2 4.8 4.8 4.9 4.7 4.8 4.8 5.2 5.4 5.8 5.9 5.9 5.9 5.9 6.1 6.3 6.1 6.2 6.3 6.3 6.2 6.3 6.4 6.6 6.6 6.6 6.6 6.5 6.4 6.2 5.9 5.9 5.8 5.6 5.4 5.5 5.5 5.4
4.1 4.5 4.1 5.1 4.7 4.5 4.6 5.1 5.1 5.0 4.7 4.8 4.8 4.8 5.0 5.5 5.8 6.1 6.1 6.0 5.8 5.8 5.9 5.9 5.9 5.9 5.9 6.1 6.2 6.2 6.2 6.2 6.2 6.2 6.1 6.0 5.9 5.9 5.7 5.8 5.5 5.4 5.4 5.2
4.5 4.8 4.6 5.0 4.8 4.3 4.5 4.7 4.7 4.4 4.4 4.5 4.5 4.6 4.8 5.2 5.6 6.0 6.0 5.9 6.0 5.8 5.6 5.6 5.6 5.6 5.6 5.7 5.7 5.8 5.9 5.9 6.0 5.9 5.8 5.7 5.6 5.5 5.6 5.3 5.3 5.4 5.3 5.2
4.5 4.1 4.5 4.6 4.7 4.8 4.5 4.5 4.6 4.5 4.4 4.5 4.7 4.9 4.9 5.0 5.2 5.5 5.7 5.9 5.9 5.9 5.6 5.4 5.6 5.6 5.4 5.3 5.3 5.3 5.4 5.4 5.4 5.4 5.3 5.3 5.2 5.2 5.3 5.5 5.6 5.5 5.0 5.0
4.4 4.5 4.5 4.3 4.3 4.3 4.2 4.2 4.2 4.3 4.6 4.9 5.0 5.2 5.3 5.2 5.4 5.5 5.4 5.3 5.3 5.3 5.4 5.6 5.4 5.4 5.4 5.2 5.1 5.1 5.2 5.2 5.1 5.2 5.2 5.1 5.2 5.2 5.2 5.3 5.4 5.5 5.4 5.3
4.4 4.3 4.0 4.1 4.2 4.3 4.4 4.1 4.0 4.3 4.4 4.5 4.6 4.8 5.0 5.3 5.5 5.5 5.6 5.4 5.1 5.0 5.0 4.8 4.8 4.7 4.6 4.7 4.8 4.7 4.8 4.9 4.9 4.9 4.9 4.8 4.8 4.9 4.9 4.9 5.0 5.0 5.0 5.1
4.5 4.5 4.4 4.3 4.4 4.6 4.5 4.4 4.2 4.2 4.3 4.4 4.5 4.6 4.6 4.7 4.9 5.3 5.2 5.2 5.1 4.7 4.4 4.2 4.1 4.2 4.2 4.5 4.3 3.8 4.1 4.2 4.2 4.2 4.3 4.4 4.5 4.7 4.6 4.7 4.8 4.9 5.0 4.8
4.8 4.9 4.9 4.9 4.9 4.8 4.6 4.6 5.1 4.9 4.8 4.8 4.9 5.0 4.9 4.7 4.5 4.4 4.6 4.8 4.7 4.5 4.4 4.3 4.3 4.2 4.1 4.1 4.3 4.2 4.3 4.4 4.3 4.3 4.4 4.5 4.6 4.7 4.8 4.8 4.9 4.9 5.0 5.0
5.0 5.1 5.3 5.3 5.3 5.2 5.1 5.1 5.3 5.5 5.6 5.6 5.4 5.4 5.4 5.2 5.1 5.0 4.9 4.8 4.8 4.9 4.9 4.6 4.4 4.5 4.7 4.8 4.8 4.7 4.8 4.8 4.8 4.8 4.8 4.9 4.9 4.8 4.9 5.0 4.9 4.9 4.9 5.2
5.6 5.8 5.9 6.0 5.9 5.8 5.5 5.5 5.6 5.7 5.7 5.7 5.7 5.8 5.6 5.7 5.4 5.6 5.7 5.7 5.8 5.5 5.5 5.6 5.7 5.5 5.3 5.3 5.2 5.3 5.5 5.6 5.5 5.4 5.2 5.1 5.0 5.1 5.1 5.1 5.0 5.0 5.0 5.1
5.8 5.9 5.9 5.8 5.9 6.1 5.4 5.6 5.9 6.1 6.1 6.1 6.1 6.3 6.4 6.9 6.7 6.4 6.4 6.2 6.3 6.3 5.9 5.6 5.6 5.7 5.5 5.5 5.4 5.6 5.7 5.6 5.5 5.4 5.4 5.4 5.3 5.5 5.6 5.5 5.4 5.3 5.5 5.4
5.3 5.4 5.5 5.4 5.6 5.8 6.6 6.7 6.5 6.7 6.8 6.7 6.7 6.7 6.9 7.2 7.4 7.0 6.9 7.0 7.1 7.0 6.8 6.7 6.7 6.5 6.5 6.4 6.7 6.7 6.4 6.3 6.1 5.9 5.7 5.7 5.6 5.6 5.7 5.7 5.6 5.3 5.1 5.1
5.9 6.0 6.0 6.2 6.3 6.2 6.6 7.1 7.0 7.3 7.3 7.4 7.3 7.3 7.4 7.5 7.6 7.5 7.6 7.7 7.4 7.4 7.3 7.3 7.3 7.2 7.1 7.2 7.2 7.0 6.8 6.4 6.2 6.0 5.9 5.9 5.9 5.9 5.9 5.8 5.5 5.3 5.1 5.0
6.7 6.9 6.8 6.8 6.6 6.6 6.6 6.6 6.7 7.3 7.5 7.5 7.6 7.9 8.0 7.8 7.8 8.0 7.6 7.6 7.8 7.8 7.7 7.5 7.3 7.2 7.2 7.3 7.3 7.3 7.3 7.0 6.8 6.6 6.3 6.2 6.1 6.1 6.0 5.6 5.3 5.2 5.2 5.1
6.9 6.8 6.9 6.9 6.9 6.8 6.6 6.7 6.7 6.9 6.5 6.4 6.8 7.3 7.8 8.0 8.2 8.1 8.0 8.1 7.9 7.7 7.7 7.6 7.6 7.5 7.2 7.1 7.3 7.4 7.5 7.4 7.2 7.0 6.7 6.5 6.3 5.9 5.6 5.5 5.4 5.2 5.0 4.8
6.7 6.6 6.6 6.6 6.5 6.5 6.4 6.3 6.3 6.3 6.2 6.0 6.1 6.4 7.0 7.2 7.5 7.8 7.8 8.0 8.1 7.8 7.3 7.0 6.9 6.7 6.6 6.5 6.6 6.5 6.4 6.6 6.7 6.6 6.4 6.2 6.0 6.0 5.8 5.7 5.4 5.1 4.9 4.6
7.0 7.0 7.0 6.8 6.9 6.9 6.7 6.4 6.3 6.3 6.5 6.6 6.3 6.5 6.6 6.9 7.0 7.2 7.2 7.2 7.3 7.5 7.4 7.1 7.0 6.7 6.5 6.6 6.5 6.4 6.5 6.4 6.2 6.1 6.2 6.2 6.3 6.1 5.8 5.4 5.2 4.9 4.6 4.5
Wind_Speed
7 8 8 8 9 11 13 16 6 1 10 10 12 16 16 9 5 6 7 6 6 7 7 7 7 7 7 7 7 6 5 4 5 5 4 5 4 6 6 5 4 4 4 4
6 11 11 13 13 14 17 17 20 20 26 19 19 5 4 7 7 7 7 7 8 8 8 8 7 7 7 7 7 6 5 6 6 5 5 5 5 4 4 4 4 3 4 4
4 3 6 8 8 15 10 10 12 14 19 10 9 11 12 8 7 8 8 8 8 8 6 6 7 7 7 7 6 6 6 6 6 6 6 6 5 4 5 5 4 5 5 4
4 7 3 4 5 2 1 7 11 15 16 13 12 9 9 6 6 8 7 6 4 4 5 6 5 5 5 6 7 7 7 7 6 6 6 6 6 6 5 4 4 5 5 5
2 4 9 2 2 2 2 4 3 7 7 8 5 7 8 5 5 4 5 4 5 5 5 5 6 6 7 7 7 7 8 8 7 7 7 7 7 6 5 4 4 5 5 5
1 2 4 0 4 1 3 4 3 5 6 6 6 3 3 4 5 6 7 6 6 7 5 6 7 6 6 7 7 8 9 9 7 7 7 7 7 7 4 4 5 4 6 6
5 4 7 4 7 4 1 4 4 2 5 5 4 5 7 9 7 7 7 9 8 8 7 8 7 6 7 7 8 8 7 7 7 7 7 7 6 4 4 5 5 6 6 6
4 4 7 4 5 4 3 3 4 5 4 6 7 8 8 9 9 9 9 9 9 7 7 7 6 6 7 8 7 7 7 7 7 7 6 5 7 6 6 6 6 6 6 6
8 5 2 5 5 6 4 4 6 5 7 6 8 8 11 12 9 9 10 11 7 7 8 7 7 7 8 11 7 7 7 8 8 7 6 7 7 6 5 6 5 6 5 5
3 5 7 7 6 5 4 5 4 5 7 8 11 13 14 13 12 11 8 9 6 7 7 7 7 7 7 8 8 7 7 7 6 7 7 7 6 6 5 5 6 7 6 6
6 12 11 11 2 2 4 6 8 9 10 10 11 15 14 14 13 11 9 6 6 7 7 8 7 7 7 7 6 6 6 6 6 5 6 6 6 6 7 8 8 7 7 6
6 7 5 13 8 9 10 6 8 10 12 13 12 16 15 16 14 11 8 6 7 7 7 7 7 7 7 5 5 6 6 4 4 4 5 5 5 5 8 12 13 14 11 7
9 7 7 11 10 5 7 12 11 12 13 15 17 13 15 14 12 15 12 8 8 7 8 7 6 7 6 6 5 5 5 5 4 5 4 5 4 5 6 5 12 14 15 16
7 7 7 6 6 9 8 8 9 9 11 11 12 13 12 13 14 11 11 9 7 7 6 5 6 7 6 4 3 5 5 8 4 4 4 4 4 4 4 4 4 4 8 13
7 6 5 7 7 8 6 7 9 9 9 10 9 10 10 12 13 12 11 11 8 5 5 6 6 6 5 3 4 5 4 4 4 4 4 5 4 4 4 4 5 6 4 5
9 7 8 8 8 8 7 8 7 10 9 10 10 9 10 10 11 10 9 7 5 5 6 5 6 5 4 3 5 4 5 8 6 3 4 4 4 4 4 4 5 6 5 6
5 9 9 9 9 10 9 9 7 9 11 8 9 10 9 8 8 8 7 6 6 7 7 6 7 5 5 4 5 4 4 4 7 4 4 4 4 4 4 4 4 8 7 5
7 6 7 8 7 9 11 9 9 10 9 10 9 7 8 8 7 9 8 7 7 7 7 8 7 6 5 5 5 4 4 4 3 4 4 4 4 4 4 4 6 8 8 7
8 8 8 8 9 9 9 10 10 9 8 8 8 10 9 9 8 7 7 7 7 7 7 5 6 6 6 6 6 4 4 4 4 4 4 7 5 4 4 5 6 7 7 7
7 8 11 11 10 8 12 11 10 10 9 8 8 9 11 11 8 7 5 8 8 7 6 7 6 6 7 8 10 5 5 6 6 5 4 4 5 6 5 9 8 8 8 7
8 8 10 11 14 14 12 11 12 12 13 11 9 10 12 14 12 10 7 7 11 6 8 10 6 5 6 7 6 5 6 6 6 6 6 6 6 7 6 5 6 7 7 7
9 9 11 12 12 15 15 13 12 13 12 10 10 8 9 12 12 11 10 11 10 10 7 5 5 10 8 11 4 6 6 6 6 5 6 6 6 6 6 6 7 9 8 7
9 9 11 11 12 14 13 14 14 10 11 12 13 12 10 9 9 9 12 5 6 6 6 5 8 11 13 7 5 5 6 7 7 8 8 7 6 6 6 6 7 9 9 7
7 8 12 12 12 12 14 15 13 10 10 12 12 11 9 8 10 6 9 14 14 12 8 8 9 13 14 4 4 5 7 8 8 7 7 11 5 5 5 6 6 6 7 9
10 12 12 11 9 8 12 12 11 11 11 11 11 9 8 5 8 11 7 8 14 12 8 11 15 15 6 4 5 6 7 7 6 5 5 5 5 6 6 6 6 6 7 7
10 9 9 10 10 10 9 8 8 9 8 9 9 7 8 7 7 8 8 9 7 10 8 7 5 6 4 4 5 6 6 5 4 4 5 5 6 6 7 7 6 6 6 4
7 12 7 6 7 7 7 7 9 10 10 9 10 9 9 9 10 11 12 8 8 8 8 7 5 5 4 5 4 4 3 3 7 5 3 5 5 6 6 6 6 3 1 1
Wind_Direction
265 275 270 244 218 211 215 224 231 119 272 295 309 308 296 258 292 301 292 292 286 267 256 245 233 217 217 221 217 216 229 237 248 257 274 280 291 299 306 318 317 312 313 316
279 256 247 258 253 241 240 239 243 258 272 278 273 262 280 261 254 268 268 265 265 271 268 253 236 218 211 217 223 206 219 235 245 247 254 266 263 262 265 273 282 278 298 316
266 332 296 284 254 233 233 241 237 250 256 291 304 311 295 286 292 281 270 267 267 270 280 273 249 220 213 214 208 205 219 234 240 242 244 251 258 257 266 265 274 285 281 284
281 306 256 276 216 164 256 270 237 246 266 275 277 278 283 267 285 291 283 281 312 310 306 283 245 210 208 207 203 210 224 231 235 237 240 244 248 246 251 249 251 262 265 262
279 309 285 304 46 48 140 297 21 237 267 283 336 349 326 336 339 305 319 299 268 258 260 272 284 231 202 210 209 215 229 228 228 226 233 238 245 246 247 245 256 262 264 270
339 253 256 177 162 73 72 292 55 35 2 330 337 320 263 4 328 302 294 278 278 269 265 271 263 250 213 219 217 224 227 225 223 224 222 226 230 237 236 231 245 255 267 259
236 268 284 282 148 142 70 237 142 32 351 313 286 232 285 315 306 285 267 270 263 263 254 252 257 243 234 235 236 238 237 228 225 225 226 226 231 231 229 238 248 250 254 256
197 237 267 126 104 176 198 306 348 321 294 293 287 288 283 283 278 285 283 281 272 264 255 247 249 233 245 247 243 245 243 235 229 227 223 217 221 232 231 226 237 248 253 260
193 216 219 192 259 266 269 254 276 276 286 290 284 278 289 293 279 280 284 283 257 254 266 262 251 223 231 246 232 239 233 231 229 227 221 218 216 226 230 223 223 234 232 243
351 260 265 306 308 306 308 274 323 343 312 288 286 291 287 285 283 283 279 277 267 265 267 273 265 261 249 254 239 235 246 242 229 225 231 225 219 216 216 218 228 231 231 239
262 284 289 282 35 46 319 303 294 285 284 288 292 293 292 292 288 284 277 274 262 243 248 260 270 271 274 286 279 258 250 249 248 235 237 236 224 212 221 230 221 236 236 232
252 283 299 305 327 335 321 339 331 310 308 303 299 295 297 295 291 286 274 277 270 250 253 264 269 274 282 279 276 273 270 260 252 243 243 243 244 266 251 238 229 238 238 217
267 293 292 291 316 357 345 324 315 319 315 310 308 304 302 296 294 294 296 282 265 260 258 259 269 279 281 282 273 271 270 278 281 282 262 247 239 234 257 279 259 250 250 252
331 336 324 317 328 330 323 317 311 299 298 301 301 308 305 304 306 299 289 286 276 271 263 267 272 276 283 284 294 284 273 264 256 261 273 287 287 273 265 261 263 266 254 242
341 345 289 304 337 329 316 310 309 304 303 309 311 304 309 307 306 304 303 296 288 279 287 279 274 274 290 273 279 279 276 271 264 259 257 260 264 270 267 271 269 274 281 269
335 360 10 345 326 320 315 316 307 312 315 313 316 315 307 304 300 299 299 299 301 284 284 282 273 261 253 253 274 271 272 274 263 270 284 286 282 276 276 268 270 273 271 264
357 349 335 329 328 324 322 312 298 297 306 309 302 304 304 304 303 306 308 304 286 276 273 270 268 266 254 228 223 248 264 275 279 280 277 277 276 278 278 280 279 289 284 266
344 319 310 300 300 300 304 305 304 305 303 298 297 299 302 304 295 299 298 304 307 297 275 261 253 251 242 237 238 246 259 269 272 268 271 274 270 265 269 278 288 288 291 289
314 310 303 304 307 303 297 303 301 296 294 296 305 304 293 284 284 286 298 301 297 296 290 287 268 250 247 245 239 234 240 247 255 258 250 268 268 258 254 261 274 275 277 277
315 314 312 309 306 306 300 299 295 299 300 303 301 300 298 298 287 284 284 286 260 252 269 279 269 255 250 243 241 222 229 240 243 246 240 243 246 250 248 257 267 271 270 270
277 288 297 304 306 305 296 295 298 301 303 305 288 294 299 297 294 285 279 272 278 232 249 249 241 251 249 253 240 224 226 235 238 245 243 249 254 255 248 249 261 268 270 271
282 284 284 284 284 288 291 294 293 294 294 291 286 276 284 291 294 285 258 253 282 256 261 252 241 247 255 254 227 230 235 236 239 241 241 243 244 247 245 261 275 282 277 269
266 266 271 270 275 283 288 287 289 282 285 291 288 286 280 280 285 288 296 263 261 266 269 263 255 252 260 259 234 233 237 240 243 242 245 244 242 245 249 260 271 283 282 274
261 269 277 284 289 290 289 288 282 283 280 284 282 276 271 287 285 255 263 282 287 286 284 281 272 268 272 243 228 241 249 250 248 245 247 249 246 248 254 265 271 272 273 277
273 272 274 272 270 274 282 289 290 299 297 291 287 285 269 243 249 284 275 279 279 282 283 275 278 278 267 239 243 250 255 255 252 246 241 247 258 265 265 260 256 270 273 269
260 262 275 281 273 277 279 282 281 285 286 287 289 290 295 292 280 284 286 273 264 270 275 276 268 268 255 255 260 263 268 268 264 260 264 261 269 274 275 275 272 274 274 266
268 269 267 267 268 270 271 277 284 284 286 283 281 288 292 294 292 290 282 286 286 281 267 263 257 261 260 257 256 247 251 266 277 268 253 271 269 276 273 275 278 264 239 192